Location: Newark
(50.3393°N, 6.5884°E)
Time: 00:12:31
(UTC+00:00)

ISS - Visible Passes

Search period start: 21 July 2019 00:00
Search period end: 31 July 2019 00:00
Orbit: 409 x 418 km, 51.6° (Epoch: 20 July)

Date Brightness Start Highest point End Pass type
(mag) Time Alt. Az. Time Alt. Az. Time Alt. Az.
21 Jul -3.7 00:15:10 10° WNW 00:18:01 57° WSW 00:18:01 57° WSW visible
21 Jul -3.7 20:12:24 10° SW 20:15:41 57° SSE 20:18:58 10° ENE visible
21 Jul -3.5 21:49:02 10° W 21:52:23 69° N 21:55:43 10° E visible
21 Jul -3.9 23:25:50 10° WNW 23:29:11 86° SSW 23:29:24 76° ESE visible
22 Jul -3.6 20:59:39 10° W 21:03:01 76° N 21:06:21 10° ENE visible
22 Jul -3.7 22:36:29 10° WNW 22:39:50 79° NNE 22:41:11 33° E visible
23 Jul -1.5 00:13:16 10° W 00:13:58 15° W 00:13:58 15° W visible
23 Jul -3.8 20:10:18 10° WSW 20:13:39 90° NNW 20:17:00 10° ENE visible
23 Jul -3.5 21:47:07 10° W 21:50:28 70° N 21:53:07 15° E visible
23 Jul -2.6 23:23:52 10° WNW 23:25:55 32° W 23:25:55 32° W visible
24 Jul -3.4 20:57:44 10° W 21:01:04 68° N 21:04:24 10° E visible
24 Jul -4.0 22:34:29 10° WNW 22:37:49 72° SSW 22:37:57 71° S visible
25 Jul -3.5 20:08:18 10° W 20:11:39 70° N 20:15:00 10° E visible
25 Jul -3.9 21:45:06 10° WNW 21:48:28 89° NE 21:50:01 29° ESE visible
25 Jul -1.5 23:22:00 10° W 23:22:49 15° W 23:22:49 15° W visible
26 Jul -3.6 20:55:43 10° WNW 20:59:04 76° N 21:02:08 12° E visible
26 Jul -2.8 22:32:28 10° W 22:34:57 35° WSW 22:34:57 35° WSW visible
27 Jul -3.5 20:06:18 10° W 20:09:38 69° N 20:12:59 10° E visible
27 Jul -3.7 21:43:02 10° WNW 21:46:20 58° SSW 21:47:05 44° SSE visible
28 Jul -3.8 20:53:37 10° WNW 20:56:58 78° SSW 20:59:16 19° ESE visible
28 Jul -1.7 22:30:41 10° W 22:32:04 17° WSW 22:32:04 17° WSW visible
29 Jul -3.7 20:04:12 10° WNW 20:07:33 85° N 20:10:55 10° ESE visible
29 Jul -2.8 21:41:02 10° W 21:44:03 31° SSW 21:44:16 31° SSW visible
30 Jul -3.3 20:51:31 10° W 20:54:43 45° SSW 20:56:30 22° SE visible
